Flag for U.S.A. Weather past 2 weeks in Bellingham, Washington, U.S.A.

Now
61 °F

Passing clouds.


Feels Like: 61 °F
Forecast: 50 / 62 °F
Wind: 13 mph from South

Location: Bellingham International Airport

Current Time: Mar 30, 2015 at 1:29:14 PM

Latest Report: Mar 30, 2015 at 12:53 PM


Visibility: 10 mi

Pressure: 30.01 "Hg

Humidity: 62%

Dew point: 48 °F

Location of BellinghamLocation

Historic Weather in Bellingham — Graph

°F

Bellingham temperature yesterday

Maximum temperature yesterday: 56 °F (at 12:53 PM)
Minimum temperature yesterday: 50 °F (at 9:53 PM)
Average temperature yesterday: 53 °F

Past Weeks' High & Low Weather Summary

 TemperatureHumidityPressure
High64 °F (Mar 26, 12:53 PM)97% (Mar 27, 6:53 AM)30.34 "Hg (Mar 27, 6:53 AM)
Low37 °F (Mar 17, 7:53 AM)36% (Mar 16, 3:53 PM)29.71 "Hg (Mar 15, 5:53 PM)
Average51 °F77%30.10 "Hg
* Reported Mar 15 11:53 AM — Mar 30 11:53 AM, Bellingham, Weather by CustomWeather, © 2015

Note: Actual official high and low records may vary slightly from our data, if they occured in-between our weather recording intervals... More about our weather records

Advertising

Bellingham weather history for previous 24 hours

 ConditionsComfort  
Time TempWeatherWind HumidityBarometerVisibility
11:53 AM
Mon, Mar 30
60 °FPassing clouds.12 mph62%30.02 "Hg10 mi
10:53 AM58 °FOvercast.7 mph70%30.04 "Hg10 mi
9:53 AM57 °FOvercast.3 mph72%30.04 "Hg10 mi
8:53 AM52 °FLight rain. Overcast.3 mph93%30.04 "Hg10 mi
7:53 AM49 °FMostly cloudy.No wind93%30.05 "Hg10 mi
6:53 AM50 °FLight rain. Overcast.6 mph89%30.06 "Hg9 mi
5:53 AM55 °FMostly cloudy.10 mph74%30.07 "Hg10 mi
4:53 AM52 °FLight rain. Overcast.7 mph83%30.08 "Hg9 mi
3:53 AM50 °FLight rain. Overcast.No wind93%30.10 "Hg7 mi
2:53 AM49 °FFog.No wind97%30.11 "Hg5 mi
1:53 AM49 °FLight rain. Fog.3 mph93%30.11 "Hg6 mi
12:53 AM50 °FLight rain. Fog.3 mph93%30.13 "Hg4 mi
11:53 PM
Sun, Mar 29
50 °FFog.3 mph93%30.14 "Hg4 mi
10:53 PM50 °FLight rain. Fog.3 mph93%30.15 "Hg4 mi
9:53 PM50 °FFog.No wind96%30.15 "Hg5 mi
8:53 PM51 °FLight rain. Overcast.5 mph89%30.15 "Hg8 mi
7:53 PM52 °FLight rain. Mostly cloudy.No wind93%30.16 "Hg8 mi
6:53 PM53 °FLight rain. Fog.No wind89%30.17 "Hg3 mi
5:53 PM52 °FLight rain. Fog.5 mph93%30.18 "Hg5 mi
4:53 PM52 °FLight rain. Fog.5 mph89%30.19 "Hg4 mi
3:53 PM53 °FLight rain. Fog.6 mph89%30.20 "Hg5 mi
2:53 PM55 °FLight rain. Overcast.5 mph72%30.19 "Hg10 mi
1:53 PM56 °FLight rain. Overcast.14 mph65%30.19 "Hg10 mi
Weather by CustomWeather, © 2015

See weather overviewHow to use our weather pages